Weather History for Kelso-Longview, WA

Change the Weather History Date:

Wednesday, November 20, 2013

  Actual Average Record
Temperature  
Mean Temperature 36 °F -  
Max Temperature 44 °F 48 °F 60 °F (2002)
Min Temperature 28 °F 38 °F 28 °F (2011)
Degree Days  
Heating Degree Days 29    
Moisture  
Dew Point 27 °F    
Average Humidity 72    
Maximum Humidity 93    
Minimum Humidity 49    
Precipitation  
Precipitation 0.00 in - - ()
Sea Level Pressure  
Sea Level Pressure 30.30 in    
Wind  
Wind Speed 4 mph (NNE)    
Max Wind Speed 9 mph    
Max Gust Speed -    
Visibility 10 miles    
Events      
Averages and records for this station are not official NWS values.
T = Trace of Precipitation, MM = Missing Value Source: NWS Daily Summary

Daily Weather History Graph

Daily Weather History Graph

Search for Another Location

Airport:

Trip Planner

Search our weather history database for the weather conditions in past years. The results will help you decide how hot, cold, wet, or windy it might be!

Date:

Astronomy

Nov. 20, 2013 Rise Set
Actual Time 7:19 AM PST 4:34 PM PST
Civil Twilight 6:46 AM PST 5:07 PM PST
Nautical Twilight 6:10 AM PST 5:44 PM PST
Astronomical Twilight 5:34 AM PST 6:19 PM PST
Moon 7:22 PM PST (11/20) 9:49 AM PST (11/20)
Length of Visible Light 10h 20m
Length of Day
9h 14m
Waning Gibbous, 91% of the Moon is Illuminated
Nov 20
Waning Gibbous
Nov 25
Last Quarter
Dec 2
New
Dec 9
First Quarter
Dec 17
Full

Hourly Weather History & Observations

Time (PST) Temp. Windchill Dew Point Humidity Pressure Visibility Wind Dir Wind Speed Gust Speed Precip Events Conditions
12:15 AM 32.0 °F - 28.4 °F 87% 30.07 in 10.0 mi North - - N/A   Partly Cloudy
12:35 AM 33.8 °F - 28.4 °F 81% 30.08 in 10.0 mi North - - N/A   Mostly Cloudy
12:55 AM 33.8 °F - 30.2 °F 87% 30.09 in 10.0 mi North - - N/A   Overcast
1:15 AM 33.8 °F - 30.2 °F 87% 30.09 in 10.0 mi North - - N/A   Overcast
1:35 AM 33.8 °F - 30.2 °F 87% 30.10 in 10.0 mi North - - N/A   Overcast
1:55 AM 33.8 °F - 28.4 °F 81% 30.11 in 10.0 mi North - - N/A   Mostly Cloudy
2:15 AM 33.8 °F - 28.4 °F 81% 30.12 in 10.0 mi North - - N/A   Partly Cloudy
2:35 AM 32.0 °F - 28.4 °F 87% 30.13 in 10.0 mi North - - N/A   Clear
2:55 AM 32.0 °F - 28.4 °F 87% 30.14 in 10.0 mi North - - N/A   Partly Cloudy
3:15 AM 32.0 °F - 28.4 °F 87% 30.15 in 10.0 mi North - - N/A   Partly Cloudy
3:35 AM 30.2 °F - 28.4 °F 93% 30.15 in 10.0 mi North - - N/A   Clear
3:55 AM 30.2 °F - 28.4 °F 93% 30.16 in 10.0 mi North - - N/A   Clear
4:15 AM 30.2 °F - 28.4 °F 93% 30.17 in 10.0 mi North - - N/A   Clear
4:35 AM 32.0 °F - 28.4 °F 87% 30.18 in 10.0 mi North - - N/A   Clear
4:55 AM 30.2 °F - 28.4 °F 93% 30.20 in 10.0 mi North - - N/A   Clear
5:15 AM 32.0 °F - 28.4 °F 87% 30.20 in 10.0 mi North - - N/A   Clear
5:35 AM 30.2 °F - 26.6 °F 86% 30.20 in 10.0 mi North - - N/A   Clear
5:55 AM 30.2 °F - 28.4 °F 93% 30.21 in 9.0 mi North - - N/A   Clear
6:15 AM 28.4 °F - 26.6 °F 93% 30.22 in 5.0 mi North - - N/A   Clear
6:35 AM 28.4 °F - 24.8 °F 86% 30.23 in 7.0 mi North - - N/A   Clear
6:55 AM 30.2 °F - 26.6 °F 86% 30.24 in 9.0 mi North - - N/A   Clear
7:15 AM 30.2 °F - 26.6 °F 86% 30.25 in 10.0 mi North - - N/A   Clear
7:35 AM 30.2 °F - 26.6 °F 86% 30.26 in 10.0 mi North - - N/A   Clear
7:55 AM 33.8 °F - 26.6 °F 75% 30.26 in 10.0 mi North - - N/A   Clear
8:15 AM 33.8 °F - 26.6 °F 75% 30.27 in 10.0 mi North - - N/A   Clear
8:35 AM 33.8 °F - 26.6 °F 75% 30.29 in 10.0 mi North - - N/A   Clear
8:55 AM 35.6 °F - 26.6 °F 70% 30.29 in 10.0 mi North - - N/A   Clear
9:15 AM 35.6 °F - 28.4 °F 75% 30.30 in 10.0 mi North - - N/A   Clear
9:35 AM 37.4 °F - 26.6 °F 65% 30.30 in 10.0 mi North - - N/A   Clear
9:55 AM 37.4 °F - 28.4 °F 70% 30.31 in 10.0 mi North - - N/A   Clear
10:15 AM 37.4 °F - 28.4 °F 70% 30.31 in 10.0 mi North - - N/A   Clear
10:35 AM 39.2 °F - 28.4 °F 65% 30.32 in 10.0 mi North - - N/A   Clear
10:55 AM 39.2 °F - 28.4 °F 65% 30.32 in 10.0 mi North - - N/A   Clear
11:15 AM 39.2 °F - 28.4 °F 65% 30.32 in 10.0 mi North - - N/A   Clear
11:35 AM 41.0 °F - 28.4 °F 61% 30.31 in 10.0 mi North - - N/A   Clear
11:55 AM 42.8 °F - 28.4 °F 57% 30.31 in 10.0 mi North - - N/A   Clear
12:15 PM 42.8 °F - 28.4 °F 57% 30.31 in 10.0 mi North - - N/A   Clear
12:35 PM 42.8 °F - 28.4 °F 57% 30.31 in 10.0 mi North - - N/A   Clear
12:55 PM 42.8 °F - 28.4 °F 57% 30.31 in 10.0 mi North - - N/A   Clear
1:15 PM 42.8 °F - 28.4 °F 57% 30.31 in 10.0 mi North - - N/A   Clear
1:35 PM 42.8 °F - 28.4 °F 57% 30.31 in 10.0 mi North - - N/A   Clear
1:55 PM 44.6 °F - 28.4 °F 53% 30.31 in 10.0 mi North - - N/A   Clear
2:15 PM 44.6 °F - 28.4 °F 53% 30.31 in 10.0 mi North - - N/A   Clear
2:35 PM 44.6 °F - 26.6 °F 49% 30.32 in 10.0 mi North - - N/A   Clear
2:55 PM 44.6 °F - 26.6 °F 49% 30.33 in 10.0 mi North - - N/A   Clear
3:15 PM 42.8 °F - 26.6 °F 53% 30.34 in 10.0 mi North - - N/A   Clear
3:35 PM 42.8 °F - 26.6 °F 53% 30.34 in 10.0 mi North - - N/A   Clear
3:55 PM 42.8 °F 39.3 °F 24.8 °F 49% 30.35 in 10.0 mi North 5.8 mph - N/A   Clear
4:15 PM 42.8 °F 39.3 °F 24.8 °F 49% 30.35 in 10.0 mi North 5.8 mph - N/A   Clear
4:35 PM 41.0 °F 37.1 °F 24.8 °F 53% 30.36 in 10.0 mi NNW 5.8 mph - N/A   Clear
4:55 PM 39.2 °F - 24.8 °F 56% 30.36 in 10.0 mi Calm Calm - N/A   Clear
5:15 PM 37.4 °F - 26.6 °F 65% 30.37 in 10.0 mi Calm Calm - N/A   Clear
5:35 PM 35.6 °F - 26.6 °F 70% 30.37 in 10.0 mi Calm Calm - N/A   Clear
5:55 PM 35.6 °F 30.7 °F 24.8 °F 65% 30.38 in 10.0 mi NE 5.8 mph - N/A   Clear
6:15 PM 37.4 °F 32.8 °F 24.8 °F 60% 30.39 in 10.0 mi North 5.8 mph - N/A   Clear
6:35 PM 33.8 °F - 23.0 °F 65% 30.39 in 10.0 mi Calm Calm - N/A   Clear
6:55 PM 35.6 °F - 24.8 °F 65% 30.40 in 10.0 mi Calm Calm - N/A   Clear
7:15 PM 37.4 °F 32.8 °F 24.8 °F 60% 30.40 in 10.0 mi NNE 5.8 mph - N/A   Clear
7:35 PM 37.4 °F 30.8 °F 23.0 °F 56% 30.41 in 10.0 mi NNE 9.2 mph - N/A   Clear
7:55 PM 37.4 °F 30.8 °F 23.0 °F 56% 30.42 in 10.0 mi NNE 9.2 mph - N/A   Clear
8:15 PM 37.4 °F 30.8 °F 23.0 °F 56% 30.42 in 10.0 mi North 9.2 mph - N/A   Clear
8:35 PM 35.6 °F 32.8 °F 23.0 °F 60% 30.43 in 10.0 mi NNE 3.5 mph - N/A   Clear
8:55 PM 35.6 °F 32.8 °F 23.0 °F 60% 30.43 in 10.0 mi NNE 3.5 mph - N/A   Clear
9:15 PM 33.8 °F - 24.8 °F 70% 30.43 in 10.0 mi Calm Calm - N/A   Clear
9:35 PM 33.8 °F - 24.8 °F 70% 30.45 in 10.0 mi Calm Calm - N/A   Clear
9:55 PM 30.2 °F - 24.8 °F 80% 30.45 in 10.0 mi Calm Calm - N/A   Clear
10:15 PM 30.2 °F - 24.8 °F 80% 30.46 in 10.0 mi Calm Calm - N/A   Clear
10:35 PM 30.2 °F 26.7 °F 24.8 °F 80% 30.47 in 10.0 mi SE 3.5 mph - N/A   Clear
10:55 PM 30.2 °F - 26.6 °F 86% 30.48 in 10.0 mi Calm Calm - N/A   Clear
11:15 PM 30.2 °F 25.4 °F 24.8 °F 80% 30.48 in 10.0 mi NNW 4.6 mph - N/A   Clear
11:35 PM 30.2 °F - 24.8 °F 80% 30.48 in 10.0 mi Calm Calm - N/A   Clear
11:55 PM 30.2 °F 26.7 °F 24.8 °F 80% 30.49 in 10.0 mi NNW 3.5 mph - N/A   Clear